Stündliche Wetter Homichevo

Heute, 21 Juni, Montag

Zeit Temperatur Niederschläge Wind Luftdruck Luftfeuchtigkeit
00:00 +20°C° 0 mm 3 m/S 748 mmHg 86%
01:00 +19°C° 0 mm 2 m/S 748 mmHg 89%
02:00 +18°C° 0 mm 2 m/S 748 mmHg 90%
03:00 +19°C° 0 mm 2 m/S 748 mmHg 92%
04:00 +19°C° 0 mm 2 m/S 748 mmHg 93%
05:00 +19°C° 0 mm 2 m/S 748 mmHg 95%
06:00 +20°C° 0 mm 3 m/S 748 mmHg 90%
07:00 +22°C° 0 mm 4 m/S 748 mmHg 85%
08:00 +25°C° 0 mm 5 m/S 748 mmHg 80%
09:00 +26°C° 0 mm 5 m/S 748 mmHg 73%
10:00 +27°C° 0 mm 5 m/S 747 mmHg 66%
11:00 +29°C° 0 mm 5 m/S 747 mmHg 59%
12:00 +29°C° 0 mm 4 m/S 747 mmHg 57%
13:00 +30°C° 0 mm 4 m/S 747 mmHg 55%
14:00 +30°C° 0 mm 4 m/S 746 mmHg 53%
15:00 +30°C° 0.1 mm 3 m/S 746 mmHg 58%
16:00 +29°C° 0.1 mm 2 m/S 746 mmHg 64%
17:00 +29°C° 0.1 mm 2 m/S 746 mmHg 69%
18:00 +27°C° 0.1 mm 2 m/S 745 mmHg 73%
19:00 +26°C° 0.1 mm 2 m/S 745 mmHg 77%
20:00 +25°C° 0.1 mm 2 m/S 745 mmHg 80%
21:00 +24°C° 0 mm 2 m/S 746 mmHg 83%
22:00 +23°C° 0 mm 2 m/S 746 mmHg 86%
23:00 +21°C° 0 mm 2 m/S 746 mmHg 89%

Morgen, 22 Juni, Dienstag

Zeit Temperatur Niederschläge Wind Luftdruck Luftfeuchtigkeit
00:00 +21°C° 0 mm 2 m/S 746 mmHg 90%
01:00 +20°C° 0 mm 2 m/S 746 mmHg 91%
02:00 +20°C° 0 mm 2 m/S 746 mmHg 92%
03:00 +20°C° 0 mm 2 m/S 746 mmHg 93%
04:00 +20°C° 0 mm 2 m/S 746 mmHg 93%
05:00 +19°C° 0 mm 2 m/S 746 mmHg 93%
06:00 +21°C° 0 mm 3 m/S 747 mmHg 88%
07:00 +24°C° 0 mm 3 m/S 747 mmHg 82%
08:00 +25°C° 0 mm 4 m/S 747 mmHg 76%
09:00 +27°C° 0 mm 4 m/S 747 mmHg 71%
10:00 +28°C° 0 mm 4 m/S 747 mmHg 65%
11:00 +29°C° 0 mm 4 m/S 747 mmHg 59%
12:00 +30°C° 0 mm 4 m/S 747 mmHg 56%
13:00 +32°C° 0 mm 4 m/S 747 mmHg 54%
14:00 +32°C° 0 mm 4 m/S 747 mmHg 52%
15:00 +31°C° 0 mm 3 m/S 747 mmHg 54%
16:00 +31°C° 0 mm 3 m/S 747 mmHg 56%
17:00 +31°C° 0 mm 2 m/S 747 mmHg 58%
18:00 +30°C° 0 mm 2 m/S 747 mmHg 63%
19:00 +28°C° 0 mm 2 m/S 747 mmHg 68%
20:00 +27°C° 0 mm 1 m/S 747 mmHg 73%
21:00 +26°C° 0 mm 2 m/S 747 mmHg 77%
22:00 +24°C° 0 mm 2 m/S 748 mmHg 80%
23:00 +23°C° 0 mm 2 m/S 748 mmHg 83%

übermorgen, 23 Juni, Mittwoch

Zeit Temperatur Niederschläge Wind Luftdruck Luftfeuchtigkeit
00:00 +23°C° 0 mm 2 m/S 748 mmHg 85%
01:00 +21°C° 0 mm 2 m/S 748 mmHg 87%
02:00 +20°C° 0 mm 2 m/S 748 mmHg 90%
03:00 +20°C° 0 mm 2 m/S 748 mmHg 90%
04:00 +20°C° 0 mm 2 m/S 748 mmHg 91%
05:00 +19°C° 0 mm 2 m/S 748 mmHg 91%
06:00 +21°C° 0 mm 3 m/S 749 mmHg 85%
07:00 +24°C° 0 mm 3 m/S 749 mmHg 79%
08:00 +25°C° 0 mm 3 m/S 749 mmHg 73%
09:00 +27°C° 0 mm 3 m/S 749 mmHg 68%
10:00 +28°C° 0 mm 3 m/S 749 mmHg 62%
11:00 +30°C° 0 mm 3 m/S 749 mmHg 57%
12:00 +30°C° 0 mm 2 m/S 749 mmHg 54%
13:00 +31°C° 0 mm 2 m/S 749 mmHg 52%
14:00 +32°C° 0 mm 1 m/S 749 mmHg 50%
15:00 +32°C° 0 mm 1 m/S 749 mmHg 50%
16:00 +32°C° 0 mm 1 m/S 749 mmHg 50%
17:00 +33°C° 0 mm 1 m/S 749 mmHg 51%
18:00 +31°C° 0 mm 1 m/S 749 mmHg 58%
19:00 +29°C° 0 mm 2 m/S 749 mmHg 65%
20:00 +28°C° 0 mm 2 m/S 749 mmHg 72%
21:00 +27°C° 0 mm 2 m/S 749 mmHg 74%
22:00 +26°C° 0 mm 2 m/S 749 mmHg 76%
23:00 +25°C° 0 mm 1 m/S 749 mmHg 79%

24 Juni, Donnerstag

Zeit Temperatur Niederschläge Wind Luftdruck Luftfeuchtigkeit
00:00 +24°C° 0.1 mm 1 m/S 749 mmHg 81%
01:00 +24°C° 0.1 mm 1 m/S 749 mmHg 84%
02:00 +23°C° 0.1 mm 1 m/S 749 mmHg 86%
03:00 +23°C° 0 mm 1 m/S 749 mmHg 87%
04:00 +23°C° 0 mm 1 m/S 749 mmHg 87%
05:00 +23°C° 0 mm 1 m/S 749 mmHg 88%
06:00 +24°C° 0 mm 1 m/S 749 mmHg 84%
07:00 +26°C° 0 mm 1 m/S 750 mmHg 80%
08:00 +27°C° 0 mm 2 m/S 750 mmHg 76%
09:00 +28°C° 0 mm 2 m/S 750 mmHg 70%
10:00 +30°C° 0 mm 2 m/S 750 mmHg 65%
11:00 +31°C° 0 mm 2 m/S 750 mmHg 60%
12:00 +31°C° 0.1 mm 2 m/S 750 mmHg 57%
13:00 +32°C° 0.1 mm 2 m/S 750 mmHg 53%
14:00 +34°C° 0.1 mm 2 m/S 749 mmHg 50%
15:00 +34°C° 0 mm 2 m/S 749 mmHg 52%
16:00 +32°C° 0 mm 2 m/S 749 mmHg 53%
17:00 +32°C° 0 mm 1 m/S 749 mmHg 55%
18:00 +31°C° 0 mm 1 m/S 749 mmHg 61%
19:00 +29°C° 0 mm 1 m/S 749 mmHg 66%
20:00 +28°C° 0 mm 1 m/S 749 mmHg 72%
21:00 +27°C° 0.1 mm 1 m/S 749 mmHg 75%
22:00 +26°C° 0.1 mm 1 m/S 748 mmHg 78%
23:00 +25°C° 0.1 mm 2 m/S 748 mmHg 81%

25 Juni, Freitag

Zeit Temperatur Niederschläge Wind Luftdruck Luftfeuchtigkeit
00:00 +24°C° 0.4 mm 2 m/S 748 mmHg 84%
01:00 +23°C° 0.4 mm 1 m/S 748 mmHg 87%
02:00 +23°C° 0.4 mm 1 m/S 748 mmHg 90%
03:00 +23°C° 0.1 mm 2 m/S 748 mmHg 90%
04:00 +23°C° 0.1 mm 2 m/S 748 mmHg 91%
05:00 +23°C° 0.1 mm 2 m/S 748 mmHg 91%
06:00 +24°C° 0 mm 2 m/S 748 mmHg 86%
07:00 +26°C° 0 mm 2 m/S 748 mmHg 80%
08:00 +28°C° 0 mm 3 m/S 748 mmHg 75%
09:00 +29°C° 0 mm 3 m/S 748 mmHg 68%
10:00 +31°C° 0 mm 3 m/S 748 mmHg 62%
11:00 +33°C° 0 mm 4 m/S 748 mmHg 55%
12:00 +34°C° 0 mm 4 m/S 747 mmHg 53%
13:00 +34°C° 0 mm 4 m/S 747 mmHg 51%
14:00 +35°C° 0 mm 4 m/S 747 mmHg 49%
15:00 +34°C° 0 mm 4 m/S 747 mmHg 53%
16:00 +34°C° 0 mm 4 m/S 747 mmHg 57%
17:00 +33°C° 0 mm 4 m/S 746 mmHg 61%
18:00 +30°C° 0.3 mm 4 m/S 746 mmHg 68%
19:00 +29°C° 0.3 mm 3 m/S 746 mmHg 75%
20:00 +27°C° 0.3 mm 3 m/S 746 mmHg 82%
21:00 +26°C° 0.2 mm 3 m/S 747 mmHg 86%
22:00 +24°C° 0.2 mm 3 m/S 747 mmHg 89%
23:00 +22°C° 0.2 mm 3 m/S 747 mmHg 93%

26 Juni, Samstag

Zeit Temperatur Niederschläge Wind Luftdruck Luftfeuchtigkeit
00:00 +21°C° 0.3 mm 3 m/S 747 mmHg 94%
01:00 +21°C° 0.3 mm 3 m/S 748 mmHg 95%
02:00 +20°C° 0.3 mm 3 m/S 748 mmHg 97%
03:00 +19°C° 0.1 mm 3 m/S 748 mmHg 97%
04:00 +18°C° 0.1 mm 3 m/S 748 mmHg 97%
05:00 +18°C° 0.1 mm 3 m/S 748 mmHg 97%
06:00 +19°C° 0 mm 3 m/S 749 mmHg 92%
07:00 +19°C° 0 mm 3 m/S 749 mmHg 87%
08:00 +20°C° 0 mm 4 m/S 749 mmHg 82%
09:00 +22°C° 0 mm 4 m/S 749 mmHg 75%
10:00 +23°C° 0 mm 4 m/S 749 mmHg 69%
11:00 +25°C° 0 mm 4 m/S 749 mmHg 63%
12:00 +26°C° 0 mm 4 m/S 749 mmHg 61%
13:00 +27°C° 0 mm 4 m/S 749 mmHg 58%
14:00 +27°C° 0 mm 3 m/S 749 mmHg 56%
15:00 +27°C° 0 mm 3 m/S 749 mmHg 57%
16:00 +27°C° 0 mm 3 m/S 749 mmHg 58%
17:00 +27°C° 0 mm 3 m/S 749 mmHg 60%
18:00 +26°C° 0 mm 3 m/S 749 mmHg 65%
19:00 +24°C° 0 mm 3 m/S 749 mmHg 71%
20:00 +23°C° 0 mm 2 m/S 748 mmHg 77%
21:00 +21°C° 0 mm 3 m/S 749 mmHg 79%
22:00 +20°C° 0 mm 3 m/S 749 mmHg 81%
23:00 +19°C° 0 mm 3 m/S 749 mmHg 83%
Mehr zeigen

Wir brauchen deine Erlaubnis

Meteoprog und unser Service Anbieter werden persönliche Daten aufbewahren, so wie Cookies, Geräte Bezeichnung oder ähnliche Technologien von deinem Gerät und Prozess, so wie Persönliche Daten Inhalte und Werbungen, genauso wie social Media und den Verkehr zu analysieren.

  • Aufbewahrung und/oder Zugang zu deiner Geräte Informationen.

    Cookies, Geräte Bezeichnung oder andere Informationen, können aufbewahrt oder Zugang zu deinem Gerät erhalten, für den Grund, der oben angegeben wird.

  • Personalisierte Werbung und Inhalte, Messungen, Einblick in das Publikum und Produkt Entwicklung.

    Werbungen und Inhalte können personalisiert werden, basierend auf ein Profil. Mehr Daten können besser personalisierte Werbungen und Inhalte hinzufügen. Werbung und Inhalte können gezeigt und gemessen werden. Einblicke über das Publikum, welche die Werbung gesehen haben und den Inhalt, können abgeleitet werden. So wie Daten können genutzt werden, um es zu verbessern oder die Benutzer Erfahrung zu verbessern das System und die Software.

Wenn du “Ich stimme zu” klickst, erlaubst du uns, die Cookies zu benutzen die Geräte Bezeichnung, den Web oder ähnliche Technologien zu benutzen. Deine Settings, können in deinem Gerät bei deinem Browser geändert werden.

Für den bestimmten Zweck, berechtigten Interessen beruhen darauf, mehr als auf den Inhalt. Du kannst mehr darüber in unseren Privaten und Cookie Politik lesen.